Location: Bellerive
(46.9237°N, 7.0223°E)
Time: 23:29:43
(UTC+00:00)

SPOT 3 Rocket - Pass Details

Date: 09 April 2020
Orbit: 779 x 794 km, 98.8° (Epoch: 04 June)

Event Time Altitude Azimuth Distance (km) Brightness Sun altitude
Exits shadow 19:22:42 - 158° (SSE) 2,589 5.8 -12.1°
Reaches altitude 10° 19:23:17 10° 158° (SSE) 2,354 5.6 -12.2°
Maximum altitude 19:28:29 76° 73° (ENE) 818 3.5 -13.0°
Drops below altitude 10° 19:33:42 10° 348° (NNW) 2,363 6.6 -13.8°
Sets 19:36:01 0° 347° (NNW) 3,294 7.4 -14.1°
